ALICE

导读

ALICE(爱丽丝)是美国研发的一颗3U型纳卫星,由美国空军大学研制,南瓜公司提供平台支持,于2013年12月6日从范登堡空军基地搭载宇宙神5运载火箭发射升空。 该卫星质量仅5kg,运行在462km×889km、倾角120.50°的轨道上,属于技术试验卫星,核心任务是演示验证基于碳纳米管阵列的新型小型卫星推进技术,同时搭载集成小型静电分析仪开展相关实验。

基本信息
目录编号:
39467
目录名称:
ALICE
国际标识:
2013-072F
轨道中心:
EARTH
卫星名称:
ALICE
卫星全名:
--
卫星状态:
在轨 (已飞行4655 天)
发射日期:
2013-12-06 UTC
国别 :
美国 (US)
星等 :
--
轨道信息
数据来源 国际轨道数据
星历时间: 2026-09-03T19:30:01+0800
18小时前
查看轨道信息
半长轴: 6914.218km
偏心率: 0.0170282
轨道倾角: 120.464°
近地点辐角 78.041°
升交点赤经 238.249°
平近点角 283.970°
近地点: 418.344km
远地点: 653.818km
周期: 95.362分钟
每日圈数: 15.100392
详细信息
使用方式:
暂无
2D轨道图
3D轨道图
轨道高度分析图
轨道倾角分析图
轨道综合分析图
查看轨道综合分析图
交会数据列表
事件ID 空间交会对象 最接近时刻(TCA) 交会距离 交会风险概率(CRP) 交会风险指数(CRI) 操作
CDM_260902-191903-946706-713428
ALICE (39467)
2026-09-02T
19:19:04+0000
1.309 km
极远距离
1.02386E-5 中风险 0.55
CDM_260904-174903-946706-277721
ALICE (39467)
2026-09-04T
17:49:04+0000
1.238 km
极远距离
9.345361E-6 低风险 0.54
CDM_260903-082303-946706-657424
ALICE (39467)
2026-09-03T
08:23:05+0000
1.387 km
极远距离
8.852662E-6 低风险 0.54
CDM_260901-091203-946704-740122
ALICE (39467)
2026-09-01T
09:12:51+0000
1.455 km
极远距离
6.109676E-6 低风险 0.51
CDM_260903-164903-946705-920622
ALICE (39467)
2026-09-03T
16:49:07+0000
2.004 km
极远距离
2.901433E-6 低风险 0.44
CDM_260905-070503-946706-309121
ALICE (39467)
2026-09-05T
07:05:50+0000
1.882 km
极远距离
2.045004E-6 低风险 0.41